Home   Weather   Trenton   Past weeks

Flag for USA Past Weather in Trenton, New Jersey, USA — Yesterday and Last 2 Weeks

Now
64 °F

Sunny.


Feels Like: 64 °F
Forecast: 43 / 66 °F
Wind: N/A

Location: Mercer County Airport

Current Time: Apr 23, 2017 at 5:39:05 pm

Latest Report: Apr 23, 2017 at 4:53 pm


Visibility: 10 mi

Pressure: 30.04 "Hg

Humidity: 43%

Dew Point: 41 °F

Location of TrentonLocation

Past Weather in Trenton — Graph

°F

Trenton Temperature Yesterday

Maximum temperature yesterday: 56 °F (at 9:53 am)
Minimum temperature yesterday: 48 °F (at 10:53 pm)
Average temperature yesterday: 53 °F

High & Low Weather Summary for the Past Weeks

 TemperatureHumidityPressure
High86 °F (Apr 16, 2:53 pm)100% (Apr 16, 3:14 am)30.50 "Hg (Apr 16, 3:14 am)
Low34 °F (Apr 9, 4:53 am)19% (Apr 9, 1:53 pm)29.79 "Hg (Apr 16, 5:53 pm)
Average58 °F61%30.11 "Hg
* Reported Apr 8 3:53 pm — Apr 23 3:53 pm, Trenton, Weather by CustomWeather, © 2017

Note: Actual official high and low records may vary slightly from our data, if they occured in-between our weather recording intervals... More about our weather records

Advertising

Trenton Weather History for the Previous 24 Hours

Scroll right to see more
 ConditionsComfort  
Time TempWeatherWind HumidityBarometerVisibility
3:53 pm
Sun, Apr 23
64 °FSunny.3 mph40%30.04 "Hg10 mi
2:53 pm62 °FSunny.3 mph44%30.06 "Hg10 mi
1:53 pm63 °FSunny.5 mph41%30.07 "Hg10 mi
12:53 pm61 °FSunny.7 mph44%30.11 "Hg10 mi
11:53 am58 °FSunny.3 mph51%30.11 "Hg10 mi
10:53 am56 °FSunny.3 mph51%30.11 "Hg10 mi
9:53 am54 °FSunny.6 mph55%30.11 "Hg10 mi
8:53 am52 °FSunny.9 mph59%30.11 "Hg10 mi
7:53 am46 °FSunny.6 mph68%30.10 "Hg10 mi
6:53 am44 °FSunny.3 mph73%30.08 "Hg10 mi
5:53 am44 °FClear.3 mph73%30.05 "Hg10 mi
4:53 am45 °FClear.6 mph71%30.03 "Hg10 mi
3:53 am44 °FClear.6 mph76%30.02 "Hg10 mi
2:53 am44 °FClear.6 mph73%30.01 "Hg10 mi
1:53 am45 °FClear.6 mph74%30.01 "Hg10 mi
12:53 am47 °FClear.6 mph69%30.01 "Hg10 mi
11:53 pm
Sat, Apr 22
48 °FClear.5 mph68%30.01 "Hg10 mi
10:53 pm48 °FPassing clouds.7 mph71%29.99 "Hg10 mi
9:53 pm50 °FPassing clouds.12 mph68%29.98 "Hg10 mi
8:53 pm52 °FMostly cloudy.3 mph86%29.95 "Hg10 mi
7:53 pm53 °FOvercast.No wind80%29.95 "Hg10 mi
6:53 pm53 °FLight rain. Overcast.5 mph83%29.95 "Hg10 mi
5:53 pm54 °FCloudy.6 mph86%29.93 "Hg10 mi
5:11 pm53 °FLight rain. More clouds than sun.6 mph89%29.95 "Hg10 mi
5:00 pm53 °FLight rain. More clouds than sun.5 mph93%29.96 "Hg9 mi
Weather by CustomWeather, © 2017

See weather overviewHow to use our weather pages